SCP
0 0 0 0 0 0 0 0 0 0 0 0 0 0 0 0 0 0 0 0 0 0 0 0 0 0 0 0 0 0 0 0 0 0 0 0 0 0 0 0 0 0 0
0 0 0 0 0 0 0 0 0 0 0 0 0 0 0 0 0 0 0 0 0 0 0 0 0 0 0 0 0 0 0 0 0 0 0 0 0 0 0 0 0 0 0
0 0 0 0 0 0 0 0 0 0 0 0 0 0 0 0 0 0 0 0 0 0 0 0 0 0 0 0 0 0 0 0 0 0 0 0 0 0 0 0 0 0 0
0 0 0 0 0 0 0 0 0 0 0 0 0 0 0 0 0 0 0 0 0 0 0 0 0 0 0 0 0 0 0 0 0 0 0 0 0 0 0 0 0 0 0
0 0 0 0 0 0 0 0 0 0 0 0 0 0 0 0 0 0 0 0 0 0 0 0 0 0 0 0 0 0 0 0 0 0 0 0 0 0 0 0 0 0 0
0 0 0 0 0 0 0 0 0 0 0 0 0 0 0 0 0 0 0 0 0 0 0 0 0 0 0 0 0 0 0 0 0 0 0 0 0 0 0 0 0 0 0
0 0 0 0 0 0 0 0 0 0 0 0 0 0 0 0 0 0 0 0 0 0 0 0 0 0 0 0 0 0 0 0 0 0 0 0 0 0 0 0 0 0 0
0 0 0 0 0 0 0 0 0 0 0 0 0 0 0 0 0 0 0 0 0 0 0 0 0 0 0 0 0 0 0 0 0 0 0 0 0 0 0 0 0 0 0
0 0 0 0 0 0 0 0 0 0 0 0 0 0 0 0 0 0 0 0 0 0 0 0 0 0 0 0 0 0 0 0 0 0 0 0 0 0 0 0 0 0 0
0 0 0 0 0 0 0 0 0 0 0 0 0 0 0 0 0 0 0 0 0 0 0 0 0 0 0 0 0 0 0 0 0 0 0 0 0 0 0 0 0 0 0
0 0 0 0 0 0 0 0 0 0 0 0 0 0 0 0 0 0 0 0 0 0 0 0 0 0 0 0 0 0 0 0 0 0 0 0 0 0 0 0 0 0 0
0 0 0 0 0 0 0 0 0 0 0 0 0 0 0 0 0 0 0 0 0 0 0 0 0 0 0 0 0 0 0 0 0 0 0 0 0 0 0 0 0 0 0
0 0 0 0 0 0 0 0 0 0 0 0 0 0 0 0 0 0 0 0 0 0 0 0 0 0 0 0 0 0 0 0 0 0 0 0 0 0 0 0 0 0 0
0 0 0 0 0 0 0 0 0 0 0 0 0 0 0 0 0 0 0 0 0 0 0 0 0 0 0 0 0 0 0 0 0 0 0 0 0 0 0 0 0 0 0
0 0 0 0 0 0 0 0 0 0 0 0 0 0 0 0 0 0 0 0 0 0 0 0 0 0 0 0 0 0 0 0 0 0 0 0 0 0 0 0 0 0 0
0 0 0 0 0 0 0 0 0 0 0 0 0 0 0 0 0 0 0 0 0 0 0 0 0 0 0 0 0 0 0 0 0 0 0 0 0 0 0 0 0 0 0
0 0 0 0 0 0 0 0 0 0 0 0 0 0 0 0 0 0 0 0 0 0 0 0 0 0 0 0 0 0 0 0 0 0 0 0 0 0 0 0 0 0 0
0 0 0 0 0 0 0 0 0 0 0 0 0 0 0 0 0 0 0 0 0 0 0 0 0 0 0 0 0 0 0 0 0 0 0 0 0 0 0 0 0 0 0
0 0 0 0 0 0 0 0 0 0 0 0 0 0 0 0 0 0 0 0 0 0 0 0 0 0 0 0 0 0 0 0 0 0 0 0 0 0 0 0 0 0 0
0 0 0 0 0 0 0 0 0 0 0 0 0 0 0 0 0 0 0 0 0 0 0 0 0 0 0 0 0 0 0 0 0 0 0 0 0 0 0 0 0 0 0
0 0 0 0 0 0 0 0 0 0 0 0 0 0 0 0 0 0 0 0 0 0 0 0 0 0 0 0 0 0 0 0 0 0 0 0 0 0 0 0 0 0 0
0 0 0 0 0 0 0 0 0 0 0 0 0 0 0 0 0 0 0 0 0 0 0 0 0 0 0 0 0 0 0 0 0 0 0 0 0 0 0 0 0 0 0
0 0 0 0 0 0 0 0 0 0 0 0 0 0 0 0 0 0 0 0 0 0 0 0 0 0 0 0 0 0 0 0 0 0 0 0 0 0 0 0 0 0 0
0 0 0 0 0 0 0 0 0 0 0 0 0 0 0 0 0 0 0 0 0 0 0 0 0 0 0 0 0 0 0 0 0 0 0 0 0 0 0 0 0 0 0
0 0 0 0 0 0 0 0 0 0 0 0 0 0 0 0 0 0 0 0 0 0 0 0 0 0 0 0 0 0 0 0 0 0 0 0 0 0 0 0 0 0 0
0 0 0 0 0 0 0 0 0 0 0 0 0 0 0 0 0 0 0 0 0 0 0 0 0 0 0 0 0 0 0 0 0 0 0 0 0 0 0 0 0 0 0
Wind_Speed
2 2 1 1 2 1 2 1 2 2 2 2 2 1 1 1 1 1 2 5 5 6 6 7 7 7 7 8 8 8 9 9 9 9 9 9 9 9 9 9 9 9 9
2 2 2 2 1 1 1 1 2 2 1 1 2 2 1 1 1 1 1 2 4 5 6 6 7 7 8 8 9 9 9 10 10 10 9 9 9 9 9 9 9 9 9
2 2 2 1 1 1 1 1 2 1 1 1 2 1 1 0 0 1 1 1 1 3 5 6 7 7 8 8 9 9 10 10 10 10 10 10 10 10 9 9 9 9 9
2 1 1 1 1 1 1 1 1 1 1 1 1 1 1 0 1 1 1 1 1 2 3 6 7 7 8 9 9 9 10 10 10 10 10 10 10 10 10 9 9 10 10
2 2 1 1 1 1 1 1 1 1 1 1 1 1 0 0 0 0 1 1 2 3 3 3 5 6 8 8 9 10 10 10 10 9 10 10 10 10 10 10 10 10 10
2 1 2 2 1 1 1 1 2 1 1 1 1 1 0 0 0 0 1 1 2 3 3 3 3 3 5 8 9 10 10 11 10 10 10 11 11 10 10 10 10 10 10
2 2 2 2 1 1 1 1 1 2 1 1 1 1 1 1 0 0 0 1 2 3 3 4 3 3 3 5 7 10 11 11 11 11 11 11 11 10 10 10 11 10 10
1 1 2 2 2 1 1 1 1 1 1 1 1 1 1 2 1 1 1 1 2 2 3 3 4 4 4 3 6 9 11 12 12 11 11 11 11 11 11 11 11 10 10
1 1 1 2 2 1 1 1 1 1 1 1 0 1 1 1 1 1 1 1 2 3 3 3 4 4 5 4 5 7 10 12 12 11 11 11 11 12 11 11 11 10 10
1 1 1 1 1 1 1 1 1 1 2 2 1 1 1 1 2 1 1 1 3 3 3 3 3 4 4 4 5 8 10 12 12 12 11 12 12 12 12 12 11 11 11
1 1 1 1 1 1 1 1 1 1 1 1 1 1 1 1 1 2 3 2 3 2 3 3 3 3 4 4 5 7 10 11 11 12 12 12 12 12 13 13 12 11 11
0 1 0 0 0 0 0 1 1 2 2 2 1 1 1 1 1 2 3 4 4 3 3 3 3 3 3 4 6 8 10 10 11 11 12 12 13 12 13 13 13 11 11
0 1 0 0 0 1 1 1 1 1 2 2 2 2 2 2 2 2 2 3 4 3 3 3 3 3 3 4 5 8 8 9 10 11 11 11 12 11 11 12 12 11 10
0 1 1 0 1 1 1 1 1 1 2 2 3 3 2 2 2 2 2 2 3 3 3 4 2 3 4 5 6 8 6 8 10 10 10 11 11 10 10 11 11 11 10
0 1 1 1 1 1 1 1 1 1 2 2 3 3 2 2 2 2 2 2 3 4 4 3 3 3 4 4 6 6 6 8 10 10 10 10 10 10 10 10 10 10 10
1 1 1 1 1 1 1 1 2 2 2 2 2 3 3 2 2 2 2 3 4 4 4 4 4 5 5 5 6 6 6 8 8 9 9 9 9 9 10 10 9 9 9
1 1 2 2 2 2 2 2 2 2 2 2 2 3 3 3 2 2 2 3 3 4 5 5 4 5 6 6 5 5 6 5 5 7 9 9 9 9 9 9 9 9 9
1 1 1 2 2 2 2 2 2 2 2 3 3 3 3 2 3 3 3 3 3 3 4 6 5 4 5 5 5 6 5 5 5 7 8 9 8 8 9 8 9 9 10
1 1 1 2 2 2 2 2 2 2 3 3 3 3 3 3 3 3 3 3 3 3 3 4 4 4 4 4 5 5 5 5 5 5 7 7 7 8 8 8 8 9 9
2 2 2 2 2 2 2 2 2 2 3 3 3 3 3 3 4 4 3 4 3 3 3 3 3 3 4 4 4 4 5 4 4 5 5 6 7 7 7 7 7 8 8
2 2 2 2 2 2 2 2 2 2 3 3 3 3 3 3 4 4 3 4 3 3 3 3 3 3 3 3 4 4 5 5 5 3 4 5 5 4 5 5 5 7 8
2 2 2 2 2 1 2 4 2 2 3 3 3 3 3 3 3 4 5 5 5 4 4 3 3 4 4 4 4 4 4 4 4 3 5 5 4 4 4 3 6 8 8
2 2 2 2 3 2 3 3 3 3 3 3 3 3 3 2 3 3 4 4 4 5 5 4 5 5 5 4 4 4 4 4 5 4 4 4 4 4 4 4 6 7 8
3 2 2 3 3 3 3 3 2 3 3 3 3 3 4 3 3 4 3 4 4 4 5 4 5 6 5 4 4 5 5 4 4 3 3 3 4 4 4 4 5 7 8
2 2 2 3 3 3 3 3 2 2 3 3 3 3 4 4 4 4 4 4 4 4 4 6 7 6 6 5 3 2 3 3 3 3 2 2 3 4 4 4 4 6 8
3 2 2 3 3 3 3 3 3 2 3 3 3 3 4 4 4 4 4 4 5 5 5 5 5 4 3 2 3 3 3 3 3 2 1 2 2 3 3 3 3 4 5
Wind_Direction
144 141 138 138 152 148 147 150 150 136 136 128 129 129 125 106 86 72 81 55 30 17 7 1 357 353 354 354 353 352 350 347 340 334 330 327 322 316 312 307 307 306 302
151 155 147 146 140 146 151 165 150 148 141 136 137 140 135 114 82 67 54 73 50 23 10 4 360 357 358 357 354 353 349 344 341 339 336 332 327 323 317 309 307 306 304
127 151 149 144 137 137 148 160 147 148 130 136 148 134 117 69 45 45 40 10 34 44 20 10 4 360 357 356 352 350 347 344 343 341 338 334 329 325 320 314 309 306 302
104 112 137 137 143 150 158 158 157 152 140 149 157 154 157 126 308 353 25 22 9 6 22 17 3 359 358 356 353 350 346 343 342 339 336 332 329 325 322 319 314 308 303
114 124 110 117 152 156 153 158 164 158 147 139 141 177 205 204 306 346 17 27 16 360 355 13 1 3 0 357 353 349 345 341 340 338 336 334 329 325 321 318 315 312 307
115 131 128 110 115 156 151 157 151 132 128 132 170 199 208 225 241 333 5 17 5 2 358 355 348 359 356 351 349 347 344 341 340 338 336 333 328 324 321 318 316 313 310
100 107 103 116 117 128 150 152 146 146 115 125 182 199 182 195 259 315 330 341 359 1 353 352 347 342 336 345 348 345 342 340 339 335 334 331 326 322 320 320 319 316 314
91 106 115 122 127 132 141 152 155 178 138 157 252 232 224 201 198 271 286 311 327 339 343 344 341 343 336 331 346 343 338 339 336 332 331 331 328 324 321 321 322 320 319
61 88 120 116 122 138 145 169 189 207 188 170 197 284 261 257 283 216 274 293 318 319 327 333 331 338 337 332 332 343 340 337 334 330 330 332 329 324 323 322 323 323 319
61 51 85 109 121 127 141 166 184 214 219 209 195 272 323 344 275 271 232 276 311 310 316 322 319 325 332 329 332 341 343 339 336 335 334 333 330 326 326 325 323 322 321
75 33 98 129 137 138 128 138 186 193 223 238 227 216 221 263 275 273 275 285 290 294 304 307 306 313 321 321 320 337 340 336 336 337 335 332 328 327 326 325 323 322 321
113 30 354 230 180 116 152 178 212 212 216 232 243 238 230 223 241 261 275 284 287 292 294 292 297 307 315 316 320 336 332 330 332 334 333 332 329 327 325 326 325 321 322
282 336 292 309 316 297 228 212 216 231 226 230 236 244 245 250 245 260 274 289 294 294 285 279 297 303 311 313 318 331 325 326 329 331 330 331 330 328 328 329 330 326 325
244 273 262 239 290 302 279 244 222 231 242 237 239 245 248 257 252 251 265 281 290 285 280 291 296 294 311 310 323 320 319 328 329 329 331 334 333 332 332 333 333 331 329
250 217 232 210 217 256 273 264 254 241 250 247 244 247 251 254 258 260 254 252 265 282 285 282 299 299 310 310 317 312 314 328 325 326 330 333 333 331 332 333 332 332 332
228 228 252 235 220 217 239 256 265 263 260 265 255 245 247 253 255 258 255 254 258 265 275 289 298 308 308 307 312 310 311 320 319 325 327 329 330 330 331 332 335 339 339
226 234 234 228 224 226 232 244 259 257 263 272 270 256 254 260 263 260 261 253 254 261 273 291 298 308 306 306 311 312 312 311 314 323 325 327 328 329 331 334 340 341 338
226 224 243 234 228 233 239 242 254 264 263 264 267 268 269 270 266 268 265 265 261 264 271 285 301 306 306 305 308 310 313 309 312 322 323 325 326 328 330 332 336 340 339
227 211 241 251 240 236 238 242 247 254 264 265 267 267 272 273 278 275 273 272 273 277 276 278 292 307 306 307 312 312 311 312 318 322 322 325 325 324 324 328 334 339 339
232 221 234 257 245 235 231 244 250 253 265 267 269 272 273 272 276 283 277 275 277 282 280 276 287 299 307 313 312 316 314 320 320 319 323 321 321 320 322 324 331 337 338
243 237 234 251 240 234 233 254 257 256 270 273 269 269 274 283 290 291 289 286 283 277 278 282 287 296 304 313 306 306 303 314 313 317 321 318 319 318 319 323 331 339 338
248 240 239 253 238 240 263 252 263 261 264 268 273 275 278 271 283 291 293 297 294 276 273 276 280 284 290 296 301 297 302 309 307 316 312 309 314 311 317 321 332 334 334
247 245 251 261 250 251 260 251 258 271 264 266 274 278 281 282 287 281 286 289 289 289 280 274 271 278 284 282 281 282 286 297 294 303 301 292 302 301 308 317 323 325 329
254 251 256 270 261 254 261 257 259 262 261 266 272 275 271 274 281 294 289 282 284 287 285 280 280 283 285 281 268 273 280 293 300 295 296 281 298 301 306 301 310 316 320
269 263 260 269 264 258 258 265 278 265 261 269 274 273 276 274 287 300 290 287 290 296 298 294 295 291 294 294 288 279 274 281 296 299 293 282 296 307 297 288 309 318 320
281 275 269 274 265 263 265 265 275 265 270 278 274 270 272 282 292 294 286 285 289 300 307 304 296 294 290 277 268 257 256 268 292 280 263 289 295 314 299 294 316 318 315